User: anonymous   Login
Location: Apollinopolis Magna
(24.9792°N, 32.8772°E)
Time: 23:54:36
(UTC+00:00)
Language:

YAOGAN 1 - Orbit

View from above orbital plane
View from above orbital plane
View from above satellite
View from above satellite

Ground track
Ground track

The orbit data is extracted from the following two-line orbital elements,

1 29092U 06015A   21125.67498374  .00000069  00000-0  15004-4 0  9992
2 29092  97.9119 153.4714 0001457  91.7984 268.3397 14.83153728812595
Epoch (UTC): 05 May 2021 16:11:58
Eccentricity: 0.0001457
inclination: 97.9119°
perigee height: 618 km
apogee height: 620 km
right ascension of ascending node: 153.4714°
argument of perigee: 91.7984°
revolutions per day: 14.83153728
mean anomaly at epoch: 268.3397°
orbit number at epoch: 81259

The dashed part of the orbit path shows where the satellite is in the earth's shadow,  

DLR